User: anonymous   Login
Location: Grossmotten
(48.5500°N, 15.3833°E)
Time: 20:59:21
(UTC+00:00)
Language:

STARLINK-52 - Orbit

View from above orbital plane
View from above orbital plane
View from above satellite
View from above satellite

Ground track
Ground track

The orbit data is extracted from the following two-line orbital elements,

1 44259U 19029AA  20020.44298591 +.00001055 +00000-0 +35056-4 0  9995
2 44259 053.0028 112.4703 0002324 112.4252 247.6998 15.40867557036248
Epoch (UTC): 20 January 2020 10:37:53
Eccentricity: 0.0002324
inclination: 53.0028°
perigee height: 442 km
apogee height: 445 km
right ascension of ascending node: 112.4703°
argument of perigee: 112.4252°
revolutions per day: 15.40867557
mean anomaly at epoch: 247.6998°
orbit number at epoch: 3624

The dashed part of the orbit path shows where the satellite is in the earth's shadow,  

DLR